Home > Weather > Kiruna > Past weeks

Flag for Sweden Past Weather in Kiruna, Sweden — Yesterday and Last 2 Weeks

Now
66 °F

Sunny.


Feels Like: 66 °F
Forecast: 52 / 66 °F
Wind: 7 mph from East

Location: Kiruna Airport

Current Time: May 30, 2016 at 11:00:37 AM

Latest Report: May 30, 2016 at 9:50 AM


Visibility: 10 mi

Pressure: 30.24 "Hg (28.42 "Hg at 532m altitude)

Humidity: 46%

Dew Point: 45 °F

Location of KirunaLocation

Past Weather in Kiruna — Graph

°F

Kiruna Temperature Yesterday

Maximum temperature yesterday: 75 °F (at 3:20 PM)
Minimum temperature yesterday: 59 °F (at 11:50 PM)
Average temperature yesterday: 70 °F

High & Low Weather Summary for the Past Weeks

 TemperatureHumidityPressure
High75 °F (May 29, 3:20 PM)100% (May 16, 3:50 AM)30.33 "Hg (May 16, 3:50 AM)
Low28 °F (May 16, 2:50 AM)22% (May 29, 4:50 PM)29.33 "Hg (May 17, 6:20 AM)
Average46 °F59%29.91 "Hg
* Reported May 15 9:20 AM — May 30 9:50 AM, Kiruna, Weather by CustomWeather, © 2016

Note: Actual official high and low records may vary slightly from our data, if they occured in-between our weather recording intervals... More about our weather records

Advertising

Kiruna Weather History for the Previous 24 Hours

Scroll right to see more
 ConditionsComfort  
Time TempWeatherWind HumidityBarometerVisibility
9:50 AM
Mon, May 30
66 °FSunny.7 mph46%30.24 "Hg10 mi
9:20 AM66 °FPassing clouds.5 mph46%30.24 "HgN/A
8:50 AM64 °FPassing clouds.3 mph46%30.24 "HgN/A
8:20 AM64 °FSunny.3 mph46%30.24 "Hg10 mi
7:50 AM63 °FSunny.3 mph49%30.24 "Hg10 mi
7:20 AM61 °FSunny.3 mph52%30.27 "Hg10 mi
6:50 AM59 °FPassing clouds.3 mph51%30.24 "HgN/A
6:20 AM59 °FSunny.6 mph51%30.27 "Hg10 mi
5:50 AM57 °FSunny.6 mph55%30.27 "Hg10 mi
5:20 AM57 °FRefreshingly cool.6 mph55%30.27 "HgN/A
4:50 AM57 °FPassing clouds.No wind51%30.27 "HgN/A
4:20 AM55 °FPartly sunny.2 mph55%30.27 "HgN/A
3:50 AM52 °FPassing clouds.No wind62%30.27 "HgN/A
3:20 AM54 °FScattered clouds.2 mph58%30.27 "HgN/A
2:50 AM50 °FPassing clouds.No wind67%30.27 "HgN/A
2:20 AM52 °FCool.6 mph58%30.27 "HgN/A
1:50 AM50 °FCool.1 mph62%30.27 "HgN/A
1:20 AM55 °FRefreshingly cool.5 mph51%30.24 "HgN/A
12:50 AM54 °FCool.5 mph54%30.24 "HgN/A
12:20 AM59 °FRefreshingly cool.3 mph42%30.24 "HgN/A
11:50 PM
Sun, May 29
59 °FPassing clouds.3 mph42%30.24 "HgN/A
11:20 PM61 °FSunny.5 mph39%30.24 "Hg10 mi
10:50 PM61 °FSunny.7 mph39%30.24 "Hg10 mi
10:20 PM63 °FSunny.9 mph37%30.24 "Hg10 mi
9:50 PM64 °FSunny.7 mph34%30.24 "Hg10 mi
9:20 PM66 °FSunny.9 mph35%30.24 "Hg10 mi
8:50 PM68 °FSunny.9 mph33%30.21 "Hg10 mi
8:20 PM70 °FSunny.9 mph29%30.21 "Hg10 mi
7:50 PM72 °FSunny.2 mph33%30.21 "Hg10 mi
7:20 PM72 °FSunny.5 mph31%30.21 "Hg10 mi
6:50 PM73 °FSunny.3 mph27%30.21 "Hg10 mi
6:20 PM73 °FSunny.3 mph27%30.21 "Hg10 mi
5:50 PM73 °FSunny.2 mph25%30.21 "Hg10 mi
5:20 PM75 °FPassing clouds.5 mph24%30.21 "HgN/A
4:50 PM75 °FSunny.2 mph22%30.24 "Hg10 mi
4:20 PM75 °FSunny.3 mph24%30.24 "Hg10 mi
3:50 PM75 °FPassing clouds.5 mph24%30.24 "HgN/A
3:20 PM75 °FPassing clouds.7 mph24%30.24 "HgN/A
2:50 PM73 °FPassing clouds.5 mph23%30.24 "HgN/A
2:20 PM73 °FPassing clouds.5 mph23%30.24 "HgN/A
1:50 PM73 °FPassing clouds.6 mph25%30.24 "HgN/A
1:20 PM72 °FPassing clouds.5 mph25%30.24 "HgN/A
Weather by CustomWeather, © 2016

See weather overviewHow to use our weather pages